Regional Weather Roundup
Issued by NWS

Home | Current Version | Previous Version | Text Only | Print | Product List | Glossary Off
Versions: 1 2 3 4 5 6 7 8 9 10 11 12 13 14 15 16 17 18 19 20 21 22 23 24 25 26 27 28 29 30 31 32 33 34 35 36 37 38 39 40 41 42 43 44 45 46 47 48 49 50

000
ASUS45 KBOU 050107
RWRCO

WEATHER ROUNDUP FOR COLORADO
NATIONAL WEATHER SERVICE DENVER/BOULDER CO
700 PM MDT MON MAY 04 2015

NOTE: "FAIR" INDICATES FEW OR NO CLOUDS BELOW 12000 FEET WITH NO
SIGNIFICANT WEATHER AND/OR OBSTRUCTIONS TO VISIBILITY.

COZ001>005-013-030-031-050200-
...NORTHWEST COLORADO...

CITY           SKY/WX    TMP DP  RH WIND       PRES   REMARKS
CRAIG          MOSUNNY   61  39  44 N10       29.98F
HAYDEN         NOT AVBL
MEEKER         CLOUDY    61  38  42 SW3       29.97F
MOUNT WERNER   NOT AVBL
STEAMBOAT SPGS MOSUNNY   58  37  46 NE8       30.01F
WALDEN         CLOUDY    50  36  57 NW10      30.09F
$$

COZ006>008-011-050200-
...WEST CENTRAL VALLEYS...

CITY           SKY/WX    TMP DP  RH WIND       PRES   REMARKS
GRAND JUNCTION MOSUNNY   66  40  38 E7        29.88S
MONTROSE       CLOUDY    57  43  59 SE15      29.99R
EAGLE          PTSUNNY   55  43  62 NE6       30.02R
RIFLE          CLOUDY    60  42  51 SW5       29.94S
DELTA          CLOUDY    69  36  28 SW5       29.92R THUNDER
NUCLA          CLOUDY    54  41  62 S14G24    30.02R
$$

COZ017>023-064>068-050200-
...SOUTHWEST COLORADO...

CITY           SKY/WX    TMP DP  RH WIND       PRES   REMARKS
DURANGO        LGT RAIN  52  42  69 SW12G22   30.00R
CORTEZ         LGT RAIN  55  45  68 SW12      29.98R
PAGOSA SPRINGS CLOUDY    51  40  68 S13G23    30.09R
TELLURIDE      CLOUDY    42  38  85 CALM      30.12S
WOLF CREEK PAS NOT AVBL
$$

COZ009-010-012-014-032>034-037-058>063-050200-
...CENTRAL COLORADO...

CITY           SKY/WX    TMP DP  RH WIND       PRES   REMARKS
ASPEN          CLOUDY    51  42  71 N3        30.04S
BUENA VISTA    NOT AVBL
COPPER MTN     CLOUDY    41  32  70 CALM      30.25S THUNDER
BERTHOUD PASS  HAZE      30  21  69 E20       30.28F THUNDER VSB<1/4
COTTONWOOD PAS CLOUDY    41  37  87 SE5       30.17S
GUNNISON       CLOUDY    52  34  50 SW10G16   30.07F
KREMMLING      CLOUDY    50  41  71 NW6       30.08R
LEADVILLE      CLOUDY    48  28  46 N7        30.13S
MONARCH PASS   FOG       34  32  93 NE12      30.34S VSB<1/4 WCI  25
SALIDA         CLOUDY    49  44  82 E7        30.15R
SUNLIGHT       CLOUDY    39  36  87 CALM      30.22F
WILKERSON PASS MOCLDY    34  32  93 SE3       30.26S
$$

COZ069>075-050200-
...SAN LUIS VALLEY/SANGRE DE CRISTO MOUNTAINS...

CITY           SKY/WX    TMP DP  RH WIND       PRES   REMARKS
ALAMOSA        CLOUDY    56  38  50 SE20G30   30.02R
LA VETA PASS   FOG       37  36  93 MISG      30.16F VSB<1/4
SAGUACHE       MOSUNNY   59  32  36 N8        30.03S
$$

COZ035-036-038>040-050200-
...NORTHERN COLORADO FRONT RANGE...

CITY           SKY/WX    TMP DP  RH WIND       PRES   REMARKS
DENVER INTL AP LGT RAIN  53  49  86 SE13      30.05R
DMNS CITY PARK   N/A     51  51  97 NE8       30.05F
AURORA         LGT RAIN  52  52  99 E10       30.06S
FRONT RANGE AP CLOUDY    55  50  82 E12       30.06S
ERIE MUNI ARPT DRIZZLE   54  51  92 N6        30.06F
BOULDER MUN AP CLOUDY    52  50  93 N3        30.06F
CENTENNIAL     LGT RAIN  52  49  89 SE10      30.05F FOG
BROOMFIELD     LGT RAIN  54  50  87 N12       30.07F
FORT COLLINS   CLOUDY    55  48  76 CALM      30.07F
LONGMONT       DRIZZLE   55  51  85 CALM      30.07F
$$

COZ041-046-047-076>085-087-088-050200-
...PIKES PEAK/PALMER DIVIDE AND SOUTHERN FOOTHILLS...

CITY           SKY/WX    TMP DP  RH WIND       PRES   REMARKS
COLO. SPRINGS  TSTM      51  49  92 VRB5      30.06S FOG
A. F. ACADEMY  TSTM      51  46  82 NE9       30.07S
ELLICOTT       LGT RAIN N/A N/A N/A SE14      30.04F
FALCON         CLOUDY    46  44  93 N16       30.10S
FORT CARSON    DRIZZLE   54  48  81 W10       30.03F
LIMON          CLOUDY    55  47  74 E17       30.05S
MONUMENT HILL  CLOUDY    46  45  93 E14       30.09F
TRINIDAD       CLOUDY    52  49  89 CALM      30.03F
$$

COZ042>045-048>051-090-091-050200-
...NORTHEAST COLORADO...

CITY           SKY/WX    TMP DP  RH WIND       PRES   REMARKS
GREELEY ARPT   CLOUDY    57  45  62 E20       30.06S
AKRON          CLOUDY    50  46  86 E14       30.09S
BURLINGTON     CLOUDY    57  48  72 NE15      30.05F
WRAY           CLOUDY    51  46  80 NE9       30.10S
STERLING       CLOUDY    50  45  81 SE12      30.11R
HOLYOKE        NOT AVBL
FORT MORGAN    CLOUDY    54  -4   9 E17       30.09R
$$

COZ086-089-092>099-050200-
...SOUTHEAST COLORADO...

CITY           SKY/WX    TMP DP  RH WIND       PRES   REMARKS
PUEBLO         CLOUDY    62  46  55 S13       29.98F
LA JUNTA       LGT RAIN  56  52  86 SW13      30.00F
LAMAR          LGT RAIN  57  54  89 NW3       30.01S FOG
SPRINGFIELD      N/A     57  51  80 NW6       29.99S
$$



USA.gov is the U.S. government's official web portal to all federal, state and local government web resources and services.